| time (UTC) | temp C | wind direction | speed KPH | gust KPH | rain 1hr cm | rain 24hr cm | rain mn cm | humidity % | barometer mb |
| 20260505235004 | 10 | 355 | 1.6 | 6.4 | 0.00 | 0.00 | 0.00 | 81 | 1011.7 |
| 20260505233004 | 10 | 354 | 0.0 | 3.2 | 0.00 | 0.00 | 0.00 | 80 | 1011.8 |
| 20260505232004 | 10 | 349 | 0.0 | 6.4 | 0.00 | 0.00 | 0.00 | 80 | 1011.9 |
| 20260505231004 | 10 | 341 | 3.2 | 6.4 | 0.00 | 0.00 | 0.00 | 79 | 1011.9 |
| 20260505230010 | 10 | 343 | 3.2 | 9.7 | 0.00 | 0.00 | 0.00 | 79 | 1012.0 |
| 20260505225005 | 10 | 345 | 1.6 | 6.4 | 0.00 | 0.00 | 0.00 | 79 | 1011.8 |
| 20260505224004 | 10 | 353 | 3.2 | 6.4 | 0.00 | 0.00 | 0.00 | 79 | 1011.9 |
| 20260505223005 | 11 | 2 | 0.0 | 3.2 | 0.00 | 0.00 | 0.00 | 80 | 1012.0 |
| 20260505222004 | 11 | 354 | 0.0 | 6.4 | 0.00 | 0.00 | 0.00 | 80 | 1011.9 |
| 20260505221004 | 11 | 1 | 1.6 | 3.2 | 0.00 | 0.00 | 0.00 | 80 | 1011.8 |
| 20260505220004 | 11 | 357 | 1.6 | 6.4 | 0.00 | 0.00 | 0.00 | 80 | 1011.7 |
| 20260505215004 | 11 | 352 | 3.2 | 6.4 | 0.00 | 0.00 | 0.00 | 80 | 1012.0 |
| 20260505214005 | 11 | 358 | 1.6 | 3.2 | 0.00 | 0.00 | 0.00 | 79 | 1011.7 |
| 20260505211004 | 11 | 354 | 0.0 | 3.2 | 0.00 | 0.00 | 0.00 | 78 | 1011.8 |
| 20260505210004 | 11 | 349 | 3.2 | 3.2 | 0.00 | 0.00 | 0.00 | 79 | 1011.6 |
| 20260505205004 | 11 | 348 | 1.6 | 3.2 | 0.00 | 0.00 | 0.00 | 80 | 1011.8 |
| 20260505204004 | 11 | 348 | 1.6 | 6.4 | 0.00 | 0.00 | 0.00 | 80 | 1011.8 |
| 20260505203004 | 11 | 352 | 0.0 | 3.2 | 0.00 | 0.00 | 0.00 | 80 | 1011.7 |
| 20260505202004 | 11 | 348 | 1.6 | 6.4 | 0.00 | 0.00 | 0.00 | 80 | 1011.8 |
| 20260505200004 | 11 | 339 | 3.2 | 6.4 | 0.00 | 0.00 | 0.00 | 80 | 1011.4 |
| 20260505195004 | 11 | 341 | 3.2 | 6.4 | 0.00 | 0.00 | 0.00 | 80 | 1011.2 |
| 20260505191005 | 11 | 341 | 3.2 | 6.4 | 0.00 | 0.00 | 0.00 | 79 | 1011.2 |
| 20260505190005 | 11 | 345 | 1.6 | 6.4 | 0.00 | 0.00 | 0.00 | 78 | 1011.0 |
| 20260505185005 | 11 | 347 | 3.2 | 6.4 | 0.00 | 0.00 | 0.00 | 76 | 1010.9 |
| 20260505184005 | 12 | 348 | 1.6 | 6.4 | 0.00 | 0.00 | 0.00 | 73 | 1010.9 |
| 20260505183004 | 12 | 340 | 3.2 | 9.7 | 0.00 | 0.00 | 0.00 | 70 | 1010.7 |
| 20260505182004 | 12 | 341 | 1.6 | 6.4 | 0.00 | 0.00 | 0.00 | 69 | 1010.8 |
| 20260505181005 | 12 | 341 | 3.2 | 6.4 | 0.00 | 0.00 | 0.00 | 68 | 1010.9 |
| 20260505175004 | 12 | 345 | 3.2 | 6.4 | 0.00 | 0.00 | 0.00 | 68 | 1010.8 |
| 20260505174005 | 12 | 355 | 1.6 | 3.2 | 0.00 | 0.00 | 0.00 | 69 | 1010.7 |
| 20260505171005 | 13 | 355 | 1.6 | 3.2 | 0.00 | 0.00 | 0.00 | 70 | 1010.8 |
| 20260505170005 | 13 | 357 | 1.6 | 6.4 | 0.00 | 0.00 | 0.00 | 70 | 1010.5 |
| 20260505165005 | 13 | 349 | 3.2 | 6.4 | 0.00 | 0.00 | 0.00 | 70 | 1010.9 |
| 20260505164005 | 13 | 354 | 3.2 | 6.4 | 0.00 | 0.00 | 0.00 | 71 | 1010.7 |
| 20260505153004 | 13 | 339 | 1.6 | 9.7 | 0.00 | 0.00 | 0.00 | 72 | 1011.1 |
| 20260505152004 | 12 | 346 | 3.2 | 6.4 | 0.00 | 0.00 | 0.00 | 72 | 1011.1 |
| 20260505151005 | 12 | 345 | 3.2 | 9.7 | 0.00 | 0.00 | 0.00 | 74 | 1011.1 |
| 20260505125005 | 14 | 355 | 3.2 | 6.4 | 0.00 | 0.00 | 0.00 | 55 | 1011.3 |
| 20260505124005 | 14 | 346 | 3.2 | 6.4 | 0.00 | 0.00 | 0.00 | 58 | 1011.5 |
| 20260505123005 | 14 | 344 | 3.2 | 11.3 | 0.00 | 0.00 | 0.00 | 60 | 1011.6 |
| 20260505122006 | 14 | 348 | 4.8 | 9.7 | 0.00 | 0.00 | 0.00 | 59 | 1011.5 |
| 20260505121004 | 14 | 344 | 6.4 | 9.7 | 0.00 | 0.00 | 0.00 | 55 | 1011.5 |
| 20260505120005 | 14 | 346 | 3.2 | 9.7 | 0.00 | 0.00 | 0.00 | 60 | 1011.2 |
| 20260505115005 | 15 | 353 | 3.2 | 9.7 | 0.00 | 0.00 | 0.00 | 60 | 1011.5 |
| 20260505114004 | 14 | 359 | 4.8 | 6.4 | 0.00 | 0.00 | 0.00 | 60 | 1011.4 |
| 20260505113006 | 14 | 354 | 3.2 | 6.4 | 0.00 | 0.00 | 0.00 | 59 | 1011.5 |
| 20260505111004 | 14 | 354 | 3.2 | 11.3 | 0.00 | 0.00 | 0.00 | 60 | 1011.5 |
| 20260505102004 | 14 | 2 | 1.6 | 3.2 | 0.00 | 0.00 | 0.00 | 65 | 1012.0 |
| 20260505101004 | 13 | 357 | 0.0 | 6.4 | 0.00 | 0.00 | 0.00 | 66 | 1011.9 |
| 20260505100004 | 13 | 359 | 3.2 | 6.4 | 0.00 | 0.00 | 0.00 | 67 | 1012.1 |
| 20260505095004 | 13 | 6 | 3.2 | 6.4 | 0.00 | 0.00 | 0.00 | 70 | 1012.0 |
| 20260505094005 | 13 | 7 | 1.6 | 3.2 | 0.00 | 0.00 | 0.00 | 70 | 1012.0 |
| 20260505093004 | 12 | 2 | 0.0 | 6.4 | 0.00 | 0.00 | 0.00 | 72 | 1012.2 |
| 20260505092005 | 12 | 6 | 3.2 | 6.4 | 0.00 | 0.00 | 0.00 | 72 | 1012.3 |
| 20260505091004 | 13 | 6 | 0.0 | 3.2 | 0.00 | 0.00 | 0.00 | 74 | 1012.3 |
| 20260505084005 | 12 | 2 | 0.0 | 3.2 | 0.00 | 0.00 | 0.00 | 77 | 1012.2 |
| 20260505083005 | 12 | 2 | 1.6 | 3.2 | 0.00 | 0.00 | 0.00 | 77 | 1012.2 |
| 20260505082005 | 11 | 354 | 1.6 | 6.4 | 0.00 | 0.00 | 0.00 | 77 | 1012.3 |
| 20260505081004 | 11 | 1 | 1.6 | 6.4 | 0.00 | 0.00 | 0.00 | 77 | 1012.3 |
| 20260505080004 | 11 | 352 | 1.6 | 6.4 | 0.00 | 0.00 | 0.00 | 79 | 1012.2 |
| 20260505073005 | 10 | 358 | 3.2 | 6.4 | 0.00 | 0.00 | 0.00 | 81 | 1012.2 |
| 20260505072005 | 10 | 359 | 3.2 | 6.4 | 0.00 | 0.00 | 0.00 | 81 | 1012.3 |
| 20260505071005 | 10 | 9 | 0.0 | 6.4 | 0.00 | 0.00 | 0.00 | 84 | 1012.3 |
| 20260505070005 | 10 | 2 | 3.2 | 3.2 | 0.00 | 0.00 | 0.00 | 85 | 1012.5 |
| 20260505065004 | 9 | 1 | 1.6 | 6.4 | 0.00 | 0.00 | 0.00 | 86 | 1012.6 |
| 20260505064004 | 10 | 4 | 3.2 | 6.4 | 0.00 | 0.00 | 0.00 | 87 | 1012.5 |
| 20260505063005 | 9 | 2 | 3.2 | 3.2 | 0.00 | 0.00 | 0.00 | 89 | 1012.6 |
| 20260505062005 | 9 | 3 | 0.0 | 6.4 | 0.00 | 0.00 | 0.00 | 89 | 1012.8 |
| 20260505061004 | 8 | 3 | 1.6 | 3.2 | 0.00 | 0.00 | 0.00 | 90 | 1012.6 |
| 20260505060005 | 9 | 3 | 0.0 | 3.2 | 0.00 | 0.00 | 0.00 | 90 | 1012.7 |
| 20260505055004 | 8 | 358 | 3.2 | 6.4 | 0.00 | 0.00 | 0.00 | 90 | 1012.9 |
| 20260505054005 | 9 | 6 | 0.0 | 3.2 | 0.00 | 0.00 | 0.00 | 90 | 1012.8 |
| 20260505053005 | 9 | 10 | 0.0 | 3.2 | 0.00 | 0.00 | 0.00 | 90 | 1012.6 |
| 20260505052005 | 9 | 22 | 0.0 | 3.2 | 0.00 | 0.00 | 0.00 | 90 | 1012.6 |
| 20260505051005 | 9 | 0 | 0.0 | 0.0 | 0.00 | 0.00 | 0.00 | 90 | 1012.6 |
| 20260505041005 | 9 | 0 | 0.0 | 0.0 | 0.00 | 0.00 | 0.00 | 89 | 1012.4 |
| 20260505040005 | 9 | 0 | 0.0 | 0.0 | 0.00 | 0.00 | 0.00 | 89 | 1012.5 |
| 20260505035005 | 9 | 1 | 0.0 | 3.2 | 0.00 | 0.00 | 0.00 | 88 | 1012.5 |
| 20260505033004 | 10 | 9 | 0.0 | 3.2 | 0.00 | 0.00 | 0.00 | 88 | 1012.7 |
| 20260505031004 | 10 | 1 | 0.0 | 3.2 | 0.00 | 0.00 | 0.00 | 87 | 1012.8 |
| 20260505030005 | 10 | 9 | 0.0 | 3.2 | 0.00 | 0.00 | 0.00 | 87 | 1013.0 |
| 20260505025005 | 10 | 1 | 0.0 | 3.2 | 0.00 | 0.00 | 0.00 | 87 | 1012.9 |
| 20260505024004 | 10 | 357 | 1.6 | 3.2 | 0.00 | 0.00 | 0.00 | 87 | 1013.0 |
| 20260505022004 | 10 | 356 | 0.0 | 6.4 | 0.00 | 0.00 | 0.00 | 87 | 1013.1 |
| 20260505021004 | 10 | 1 | 3.2 | 3.2 | 0.00 | 0.00 | 0.00 | 87 | 1012.9 |
| 20260505020005 | 10 | 1 | 1.6 | 6.4 | 0.00 | 0.00 | 0.00 | 87 | 1013.0 |
| 20260505015005 | 10 | 357 | 1.6 | 6.4 | 0.00 | 0.00 | 0.00 | 87 | 1013.0 |
| 20260505014004 | 10 | 354 | 3.2 | 6.4 | 0.00 | 0.00 | 0.00 | 87 | 1013.2 |
| 20260505012004 | 10 | 353 | 3.2 | 6.4 | 0.00 | 0.00 | 0.00 | 87 | 1013.4 |
| 20260505011005 | 10 | 1 | 4.8 | 6.4 | 0.00 | 0.00 | 0.00 | 87 | 1013.6 |
| 20260505010005 | 10 | 359 | 3.2 | 6.4 | 0.00 | 0.00 | 0.00 | 87 | 1013.5 |
| 20260505004004 | 11 | 1 | 1.6 | 3.2 | 0.00 | 0.00 | 0.00 | 87 | 1013.5 |
| 20260505003005 | 11 | 350 | 1.6 | 6.4 | 0.00 | 0.00 | 0.00 | 87 | 1013.6 |
| 20260505002005 | 11 | 1 | 1.6 | 6.4 | 0.00 | 0.00 | 0.00 | 87 | 1013.7 |
| 20260505001004 | 11 | 356 | 3.2 | 3.2 | 0.00 | 0.00 | 0.00 | 87 | 1013.7 |
| 20260505000005 | 11 | 353 | 3.2 | 6.4 | 0.00 | 0.00 | 0.00 | 88 | 1013.6 |